Weather History for Billings, MT

Change the Weather History Date:

Thursday, January 17, 2013

  Actual Average Record
Temperature  
Mean Temperature 33 °F 27 °F  
Max Temperature 40 °F 37 °F 60 °F (1958)
Min Temperature 25 °F 18 °F -24 °F (1943)
Degree Days  
Heating Degree Days 32 38  
Month to date heating degree days 648 653  
Since 1 July heating degree days 3189 3474  
Cooling Degree Days 0 0  
Month to date cooling degree days 0 0  
Year to date cooling degree days 0 0  
Moisture  
Dew Point 17 °F    
Average Humidity 54    
Maximum Humidity 63    
Minimum Humidity 44    
Precipitation  
Precipitation 0.00 in 0.01 in 0.36 in (1963)
Month to date precipitation 0.39 0.26  
Year to date precipitation 0.39 0.26  
Snow  
Snow 0.00 in 0.30 in 4.60 in (1963)
Month to date snowfall 7.4 4.8  
Since 1 July snowfall 23.7 24.7  
Snow Depth 2.00 in    
Sea Level Pressure  
Sea Level Pressure 30.29 in    
Wind  
Wind Speed 21 mph (SW)    
Max Wind Speed 33 mph    
Max Gust Speed 44 mph    
Visibility 10 miles    
Events      
T = Trace of Precipitation, MM = Missing Value Source: NWS Daily Summary

Daily Weather History Graph

Daily Weather History Graph

Search for Another Location

Airport:

Trip Planner

Search our weather history database for the weather conditions in past years. The results will help you decide how hot, cold, wet, or windy it might be!

Date:

Astronomy

Jan. 17, 2013 Rise Set
Actual Time 7:49 AM MST 4:59 PM MST
Civil Twilight 7:16 AM MST 5:32 PM MST
Nautical Twilight 6:40 AM MST 6:09 PM MST
Astronomical Twilight 6:04 AM MST 6:44 PM MST
Moon 10:35 AM MST (1/17) No Moon Set
Length of Visible Light 10h 15m
Length of Day
9h 09m
Waxing Crescent, 38% of the Moon is Illuminated
Jan 17
Waxing Crescent
Jan 18
First Quarter
Jan 26
Full
Feb 3
Last Quarter
Feb 10
New

Hourly Weather History & Observations

Time (MST) Temp. Windchill Dew Point Humidity Pressure Visibility Wind Dir Wind Speed Gust Speed Precip Events Conditions
12:53 AM 28.0 °F 16.1 °F 15.1 °F 58% 30.40 in 10.0 mi SW 16.1 mph - N/A   Clear
1:53 AM 27.0 °F 13.9 °F 16.0 °F 63% 30.42 in 10.0 mi SW 18.4 mph - N/A   Clear
2:53 AM 26.1 °F 12.7 °F 15.1 °F 63% 30.42 in 10.0 mi SW 18.4 mph - N/A   Clear
3:53 AM 27.0 °F 12.5 °F 15.1 °F 61% 30.41 in 10.0 mi SW 23.0 mph - N/A   Clear
4:53 AM 28.0 °F 14.3 °F 15.1 °F 58% 30.41 in 10.0 mi SW 21.9 mph 28.8 mph N/A   Clear
5:53 AM 26.1 °F 10.7 °F 15.1 °F 63% 30.40 in 10.0 mi SW 25.3 mph 32.2 mph N/A   Clear
6:53 AM 26.1 °F 12.7 °F 15.1 °F 63% 30.39 in 10.0 mi SW 18.4 mph - N/A   Clear
7:53 AM 25.0 °F 9.9 °F 14.0 °F 63% 30.40 in 10.0 mi WSW 23.0 mph - N/A   Clear
8:53 AM 26.1 °F 11.0 °F 15.1 °F 63% 30.39 in 10.0 mi WSW 24.2 mph - N/A   Clear
9:53 AM 28.0 °F 16.1 °F 16.0 °F 61% 30.39 in 10.0 mi SW 16.1 mph - N/A   Clear
10:53 AM 34.0 °F 22.7 °F 18.0 °F 52% 30.35 in 10.0 mi SW 19.6 mph - N/A   Clear
11:53 AM 37.9 °F 27.1 °F 19.9 °F 48% 30.30 in 10.0 mi WSW 23.0 mph - N/A   Clear
12:53 PM 39.0 °F 29.3 °F 21.0 °F 49% 30.27 in 10.0 mi SW 19.6 mph - N/A   Clear
1:53 PM 39.0 °F 29.3 °F 21.0 °F 49% 30.24 in 10.0 mi SW 19.6 mph - N/A   Clear
2:53 PM 39.0 °F 29.0 °F 19.9 °F 46% 30.22 in 10.0 mi WSW 20.7 mph 31.1 mph N/A   Clear
3:53 PM 37.9 °F 28.5 °F 19.9 °F 48% 30.22 in 10.0 mi SSW 17.3 mph - N/A   Partly Cloudy
4:53 PM 37.9 °F 27.3 °F 19.0 °F 47% 30.21 in 10.0 mi WSW 21.9 mph - N/A   Partly Cloudy
5:53 PM 36.0 °F 26.3 °F 18.0 °F 48% 30.22 in 10.0 mi SW 16.1 mph - N/A   Clear
6:53 PM 34.0 °F 22.1 °F 18.0 °F 52% 30.21 in 10.0 mi SW 21.9 mph - N/A   Partly Cloudy
7:53 PM 34.0 °F 21.5 °F 17.1 °F 50% 30.19 in 10.0 mi WSW 24.2 mph - N/A   Clear
8:53 PM 33.1 °F 19.8 °F 17.1 °F 52% 30.17 in 10.0 mi WSW 26.5 mph - N/A   Clear
9:53 PM 33.1 °F 20.3 °F 17.1 °F 52% 30.13 in 10.0 mi SW 24.2 mph 32.2 mph N/A   Clear
10:53 PM 35.1 °F 22.2 °F 17.1 °F 48% 30.09 in 10.0 mi WSW 27.6 mph 36.8 mph N/A   Clear
11:53 PM 35.1 °F 22.5 °F 17.1 °F 48% 30.07 in 10.0 mi WSW 26.5 mph 36.8 mph N/A   Clear